FENGYUN 1C DEB, 31313

Orbit data source: Space-Track

FENGYUN 1C DEB, 31313 is space debris in SSO originally from a launch on Mon, 10 May 1999 UTC launched from the Taiyaun Space Center, China (TSC). Fengyun 1C debris stems from the Chinese weather satellite Fengyun-1C, which was intentionally destroyed by a Chinese anti-satellite missile in 2007. This event dramatically increased the amount of space debris, with thousands of trackable fragments posing hazards to satellites and human spaceflight. The Fengyun 1C debris cloud has become a focal point in discussions about space sustainability and the need for international regulations to prevent the creation of new debris.

Loading next visibility...
Identifier
31313, 1999-025BPR
Orbit
SSO
Country
Flag of CNCN / PRC
Related business
Manufacturer
Unknown
Mission
Spacecraft
Bus & Motor
Unknown
Mass
Unknown
Launch date (UTC)
1999-05-10 (27 years ago)
Launch vehicle
Unknown
Launch site
Taiyaun Space Center, China (TSC)
Object type
Payload
Rocket body
Debris
Shape & HBR
Unknown shape, 0.1 m
Radar Cross Section
Medium (>0.1 m² and <1 m²)

Expand to show TLE details & history
Last TLE update: 21 hours ago

TLE from 21 hours ago
0 FENGYUN 1C DEB
1 31313U 99025BPR 26237.56491500  .00000343  00000-0  17237-3 0  9999
2 31313  99.0020 152.0982 0044675 167.4275 192.8027 14.22577938  6742
Epoch: 2026-08-25T13:33Z
TLE epoch observation values (Epoch: 2026-08-25T13:33:28.655Z)
Latitude
-0.00008°
Longitude
-25.10163°
Altitude
850.913 km
Speed
7.411 km/s
True Right ascension
10h 08m 23s
True Declination
0° 00' 00"
Sunlit
Object was in daylight at epoch
Visualization orbit readout
Latitude
Unknown
Longitude
Unknown
Altitude
Unknown
Speed
Unknown
Apparent Right ascension
Unknown
Apparent Declination
Unknown
Sunlit
N/A
Visualization observer readout
Local Sidereal Time
01:44:32
Azimuth
Unknown
Elevation
Unknown
Doppler factor
Unknown
Orbital elements
Apogee altitude
845.947 km
Perigee altitude
781.687 km
Semi-major axis
7,191.954 km
Eccentricity
0.00447
Inclination
99.002°
RAAN
152.0982°
Arg. of periapsis
167.4275°
True anomaly
192.68987°
Mean anomaly
192.8027°
Eccentric anomaly
192.74622°
Mean motion
3.55855 °/min
Orbital period
101.16 mins
BSTAR
0.00017237
Loading maneuver chart data...
Computing Atmospheric mass density...
Loading historical data...
Loading historical data...
Loading historical data...
Loading historical data...
Loading historical data...
Loading historical data...
Loading historical data...

Documentation

Showing up to 5 results
|